Location: Unspecified
(43.8044°N, 11.0278°E)
Time: 09:16:54
(UTC+02:00)

Resurs 1-4 Rocket - Visible Passes

Search period start: 23 May 2015 00:00
Search period end: 02 June 2015 00:00
Orbit: 800 x 814 km, 98.4° (Epoch: 21 May)

Date Brightness Start Highest point End Pass type
(mag) Time Alt. Az. Time Alt. Az. Time Alt. Az.
23 May 4.2 03:51:05 10° NE 03:55:14 23° E 03:59:31 10° SE visible
24 May 4.6 03:27:46 10° ENE 03:30:24 14° E 03:33:19 10° ESE visible
24 May 2.2 05:05:39 10° N 05:10:59 77° WNW 05:16:18 10° SSW visible
25 May 2.5 04:41:12 10° NNE 04:46:29 66° E 04:51:48 10° S visible
26 May 3.3 04:16:55 10° NNE 04:21:54 40° E 04:26:54 10° SSE visible
27 May 4.1 03:52:56 10° NE 03:57:12 25° E 04:01:34 10° SSE visible
28 May 4.6 03:29:32 10° NE 03:32:22 15° E 03:35:29 10° ESE visible
29 May 2.5 04:43:06 10° NNE 04:48:26 69° ESE 04:53:45 10° S visible
30 May 3.2 04:18:49 10° NNE 04:23:52 42° E 04:28:54 10° SSE visible
31 May 4.0 03:54:48 10° NE 03:59:10 26° E 04:03:37 10° SSE visible
01 Jun 4.6 03:31:18 10° NE 03:34:21 16° E 03:37:38 10° SE visible
